Temperature
1 1 1 2 2 2 3 3 3 3 3 4 4 4 5 5 5 5 5 5 5 5 5 5 5 5 5 5 5 5 6 5 5 5 5 5 5 5
0 1 1 1 1 2 2 2 2 2 3 3 4 4 4 4 4 4 4 5 5 5 5 5 5 5 5 5 5 5 5 5 5 5 5 5 5 5
0 0 0 1 1 1 1 2 2 2 2 3 3 3 4 4 4 4 4 4 4 4 4 4 4 4 4 4 4 4 4 4 4 4 4 4 4 4
-0 -0 -0 -0 0 1 1 1 1 1 2 2 3 3 3 3 3 3 3 3 4 4 3 3 3 4 4 4 4 4 4 4 4 4 4 4 4 3
-1 -1 -1 -0 -0 -0 0 0 1 1 1 1 2 2 2 2 2 2 3 3 3 3 3 3 3 3 3 3 3 3 3 3 3 3 3 3 3 3
-1 -1 -1 -1 -1 -1 -0 -0 -0 0 0 1 1 1 1 2 1 2 2 2 2 2 2 2 2 2 2 2 2 2 2 2 2 3 3 2 2 2
-2 -2 -2 -1 -1 -1 -1 -1 -1 -0 0 0 0 0 1 1 1 1 1 1 1 2 2 2 2 2 2 2 2 2 2 2 2 2 2 2 2 2
-2 -2 -2 -2 -2 -2 -2 -1 -1 -1 -0 -0 -0 -0 -0 -0 -0 -0 -0 0 0 1 1 1 1 1 1 1 1 1 1 1 1 1 1 1 1 1
-3 -3 -2 -2 -2 -2 -2 -2 -2 -1 -1 -1 -1 -1 -1 -1 -1 -1 -1 -1 -0 -0 -0 0 0 1 1 1 1 1 1 1 1 1 1 1 0 1
-3 -3 -3 -3 -3 -3 -3 -2 -2 -2 -2 -1 -1 -1 -1 -1 -1 -1 -1 -1 -1 -1 -1 -1 -0 -0 0 0 0 0 0 -0 -0 -0 -0 -0 -0 -0
-4 -4 -3 -3 -3 -3 -3 -3 -3 -2 -2 -2 -2 -2 -2 -2 -2 -2 -2 -2 -2 -1 -1 -1 -1 -1 -1 -0 -0 -0 -0 -1 -1 -1 -1 -1 -1 -1
-4 -4 -4 -4 -4 -3 -3 -3 -3 -3 -3 -3 -3 -3 -3 -2 -2 -2 -2 -2 -2 -2 -2 -2 -1 -1 -1 -1 -1 -1 -1 -1 -1 -1 -1 -1 -1 -1
-5 -5 -4 -4 -4 -4 -4 -4 -4 -3 -4 -4 -4 -3 -3 -3 -3 -3 -3 -3 -3 -3 -2 -2 -2 -2 -2 -2 -2 -1 -2 -2 -2 -2 -2 -2 -2 -2
-5 -5 -5 -5 -4 -4 -4 -4 -4 -4 -4 -4 -4 -4 -4 -4 -4 -3 -3 -3 -3 -3 -3 -3 -3 -3 -3 -3 -2 -2 -2 -2 -2 -2 -2 -2 -2 -3
-6 -6 -5 -5 -5 -5 -5 -5 -4 -4 -4 -4 -4 -4 -4 -4 -4 -4 -4 -4 -4 -4 -4 -3 -3 -3 -3 -3 -3 -3 -3 -3 -3 -3 -3 -3 -3 -3
-7 -7 -6 -6 -5 -5 -5 -5 -5 -5 -5 -5 -5 -5 -5 -5 -5 -5 -5 -5 -5 -4 -4 -4 -4 -4 -4 -4 -4 -4 -4 -4 -3 -3 -3 -3 -3 -3
-7 -7 -7 -7 -6 -6 -6 -6 -6 -6 -6 -6 -6 -6 -5 -5 -5 -5 -5 -5 -5 -5 -5 -5 -5 -5 -5 -5 -5 -4 -4 -4 -4 -4 -4 -4 -4 -4
-8 -8 -8 -8 -8 -7 -7 -7 -7 -7 -6 -6 -6 -6 -6 -6 -6 -6 -6 -6 -6 -6 -6 -5 -5 -6 -6 -6 -5 -5 -5 -5 -5 -4 -4 -4 -4 -4
-8 -9 -9 -9 -8 -8 -8 -8 -8 -8 -7 -7 -7 -7 -7 -7 -7 -7 -7 -7 -7 -7 -7 -6 -6 -6 -6 -7 -6 -6 -5 -5 -5 -5 -5 -5 -5 -5
-9 -9 -9 -9 -9 -9 -9 -9 -9 -8 -8 -8 -8 -7 -7 -7 -7 -7 -7 -7 -7 -7 -7 -7 -7 -7 -7 -7 -7 -6 -6 -6 -6 -6 -6 -6 -6 -5
-10 -10 -10 -10 -10 -9 -9 -9 -9 -9 -9 -8 -8 -8 -8 -8 -8 -8 -8 -8 -8 -8 -8 -8 -8 -8 -8 -8 -8 -7 -7 -7 -7 -7 -7 -7 -6 -6
-11 -10 -10 -10 -10 -10 -10 -10 -10 -9 -9 -9 -9 -9 -9 -9 -8 -8 -8 -8 -8 -8 -8 -8 -8 -8 -8 -8 -8 -8 -8 -7 -7 -7 -7 -7 -7 -7
-11 -11 -11 -11 -11 -10 -10 -10 -10 -10 -10 -10 -9 -9 -9 -9 -9 -9 -9 -9 -9 -9 -9 -9 -9 -9 -9 -9 -9 -8 -8 -8 -8 -8 -8 -8 -8 -8
Wind_Speed
5 5 4 4 3 3 3 3 4 3 4 3 2 3 3 3 4 5 5 7 8 8 7 7 6 6 5 4 4 4 4 4 4 4 4 5 5 6
5 5 5 4 4 3 4 3 3 4 4 2 2 2 2 3 4 4 5 7 8 9 8 7 7 7 6 6 5 5 5 5 5 5 5 6 6 7
6 6 6 5 5 4 4 4 3 3 5 3 1 1 2 3 3 4 5 6 8 9 9 8 8 8 7 7 6 6 6 6 6 6 6 6 7 7
6 6 6 6 6 5 5 5 4 4 5 5 3 2 2 4 4 4 4 5 6 8 9 9 8 9 9 8 7 7 7 7 6 6 7 8 8 8
7 7 7 6 7 6 6 5 5 5 4 5 4 3 3 3 3 3 4 4 5 6 8 9 9 9 9 9 8 7 7 7 7 7 7 8 8 8
7 7 7 7 8 7 6 6 6 5 5 5 4 3 3 3 3 4 3 3 4 4 6 8 9 9 9 9 9 8 8 8 8 7 7 8 8 8
7 7 7 8 10 8 7 7 7 6 5 5 4 3 3 4 4 3 4 3 3 3 3 4 5 6 8 9 9 9 9 9 9 8 8 8 8 8
7 7 7 8 10 11 11 10 9 8 7 6 5 6 5 5 3 3 3 2 3 3 2 4 4 5 6 8 9 10 10 9 9 9 8 8 9 9
7 7 6 7 9 7 8 10 10 11 10 7 7 7 6 6 5 5 5 4 4 3 2 4 4 5 5 8 10 10 10 10 10 9 9 9 9 10
8 8 8 7 8 8 7 7 7 7 9 8 7 7 6 6 6 6 5 3 2 3 3 4 3 4 4 6 9 10 10 10 9 9 10 10 10 11
7 7 8 8 10 11 8 8 7 6 7 8 9 9 9 8 6 3 3 4 4 3 3 3 2 2 3 4 7 9 9 9 10 10 11 11 11 11
6 7 9 10 11 11 9 8 9 7 5 5 5 6 7 7 9 7 6 6 3 3 3 3 2 1 2 2 3 4 7 10 11 10 11 11 11 9
5 5 5 9 11 11 10 8 10 7 5 5 4 4 4 5 6 7 7 6 6 4 3 2 2 2 2 2 2 3 5 6 7 9 10 11 10 8
4 4 4 7 8 9 9 9 10 7 5 5 5 5 5 5 5 5 6 6 6 5 6 4 2 3 3 3 3 2 3 5 6 6 7 9 9 10
2 4 5 6 7 6 7 8 7 5 5 5 6 5 5 4 4 3 3 4 3 4 6 6 4 4 3 4 3 3 3 4 5 5 5 5 6 7
2 3 3 2 1 2 3 3 3 4 5 5 5 4 3 3 3 3 3 3 3 3 4 5 5 5 4 4 4 4 4 3 4 5 5 5 6 7
1 1 1 0 0 0 0 1 1 2 3 3 4 4 4 4 4 3 3 3 4 4 3 2 2 3 3 3 4 5 5 4 4 4 4 4 5 6
1 1 0 0 0 0 0 0 0 1 1 2 3 3 4 4 3 3 3 4 4 4 3 3 2 1 1 3 5 6 4 4 4 4 3 4 5 5
2 1 1 1 0 0 0 0 0 1 1 1 2 3 3 3 4 4 4 4 4 4 3 3 3 4 4 5 3 4 4 3 3 3 4 4 5 6
2 1 1 1 1 1 0 1 1 1 0 0 1 2 2 3 4 4 4 5 4 4 3 3 4 5 6 5 3 3 5 4 4 4 4 3 4 6
2 2 1 1 1 1 1 1 1 1 1 0 1 1 2 2 3 3 3 4 4 4 4 4 4 4 2 1 2 3 3 5 5 4 4 3 3 3
3 2 2 2 1 1 1 1 1 1 1 1 1 1 2 2 3 3 3 3 3 3 4 3 2 2 2 4 5 4 3 3 5 6 6 6 4 4
3 3 2 2 2 2 1 1 1 1 1 1 1 1 2 2 2 2 3 3 3 3 3 2 2 2 3 4 4 4 4 3 2 3 3 6 7 9
Wind_Direction
228 225 225 225 221 222 217 200 196 223 237 221 196 192 179 181 187 186 193 201 208 210 214 213 211 215 219 220 228 235 238 244 258 268 281 290 293 296
232 224 226 220 216 217 216 223 215 214 237 232 223 198 195 206 198 202 211 209 214 216 216 217 214 212 213 217 226 235 240 245 253 263 274 283 288 291
236 225 225 217 214 216 213 219 226 219 235 255 259 205 194 199 201 213 219 217 219 219 219 219 217 215 214 219 226 234 236 241 248 258 268 275 282 285
231 225 223 221 215 216 214 218 225 221 221 235 247 223 221 207 199 206 219 222 221 221 219 219 220 218 217 221 226 233 235 237 245 257 266 270 275 282
227 226 223 218 219 219 215 219 224 229 219 216 237 234 222 212 205 214 214 221 221 220 220 222 223 222 222 223 224 228 232 234 240 249 261 268 273 279
228 228 224 220 219 216 218 219 221 221 214 206 221 234 219 208 203 206 213 213 217 230 233 229 226 226 229 227 226 226 229 234 241 246 254 263 269 274
229 229 228 221 222 222 222 214 213 216 209 206 213 228 226 202 210 212 219 228 226 221 213 227 231 232 235 231 227 226 231 236 241 247 254 261 266 270
232 231 233 226 224 230 233 233 227 218 208 207 217 215 225 221 214 219 214 221 240 212 203 234 234 228 234 232 233 233 236 240 243 248 253 259 263 266
229 228 233 230 224 218 228 233 238 238 227 215 210 215 218 216 210 215 216 218 239 223 218 236 221 230 241 236 231 234 237 240 243 249 253 258 262 265
230 225 225 227 227 217 216 222 225 230 226 220 213 218 221 215 211 215 220 230 248 239 217 236 225 236 248 244 235 235 239 240 244 250 255 258 262 265
234 228 224 225 232 226 214 214 222 228 231 226 224 225 229 229 223 204 208 218 247 247 215 211 228 244 239 238 240 230 234 242 249 254 257 259 263 265
233 230 231 228 233 229 211 208 218 221 212 219 224 226 225 226 225 214 208 215 233 242 214 198 218 202 251 243 230 235 247 253 254 255 259 262 263 263
236 230 227 229 233 231 225 216 222 218 204 203 211 214 215 217 221 222 216 214 219 232 206 176 201 203 214 251 244 248 249 256 259 261 260 261 260 261
244 238 231 230 234 236 233 228 227 219 206 206 212 218 218 219 218 217 217 221 223 228 211 194 206 209 221 244 255 247 251 256 258 262 261 263 262 263
268 268 256 245 235 231 229 230 224 214 205 211 218 224 223 212 203 206 211 215 225 234 227 227 213 210 217 232 240 245 257 256 253 252 256 256 258 262
303 310 305 299 272 248 236 232 225 213 211 215 216 219 210 202 207 208 209 201 216 240 241 237 229 210 225 237 237 248 246 245 244 253 257 260 260 255
309 17 5 12 185 93 250 247 230 212 216 211 205 209 211 209 213 208 208 212 217 222 226 230 235 234 226 228 245 247 247 258 257 249 250 259 257 257
9 63 352 16 232 227 230 294 302 253 222 208 206 206 212 209 209 211 205 201 207 215 214 204 188 206 275 280 248 242 243 248 262 261 253 256 264 263
36 36 22 20 352 336 311 288 316 312 285 211 209 208 209 210 204 204 204 204 209 214 216 205 197 197 222 254 266 238 235 251 262 264 257 253 261 268
25 16 5 356 338 341 332 332 333 323 291 255 220 209 207 208 202 203 205 204 207 211 218 212 206 205 215 231 247 264 254 244 242 251 264 274 276 284
1 353 356 349 339 358 358 346 316 274 267 237 245 229 216 210 211 211 209 214 213 211 216 225 229 228 212 187 263 271 270 264 256 257 253 268 284 284
359 357 358 357 351 4 6 352 325 302 282 252 234 238 234 219 211 205 204 208 216 218 224 230 218 208 202 225 243 258 274 289 293 284 271 260 247 249
356 356 357 1 359 360 357 341 316 291 276 265 246 245 238 229 221 208 207 209 212 216 216 218 224 222 223 227 241 255 265 278 286 289 292 293 280 278
Height
1483 1485 1487 1489 1491 1493 1495 1497 1499 1499 1500 1501 1504 1506 1508 1510 1512 1513 1515 1517 1519 1521 1523 1524 1525 1527 1528 1529 1530 1531 1531 1532 1532 1533 1533 1533 1533 1533
1478 1480 1481 1483 1485 1487 1489 1492 1494 1495 1495 1496 1498 1500 1503 1505 1507 1509 1510 1512 1514 1516 1518 1519 1520 1522 1523 1524 1525 1526 1527 1527 1528 1528 1528 1528 1529 1528
1472 1474 1476 1478 1480 1482 1484 1486 1488 1491 1491 1491 1494 1495 1497 1500 1502 1504 1506 1507 1509 1511 1513 1514 1515 1517 1518 1519 1520 1521 1522 1522 1523 1523 1524 1524 1524 1524
1467 1469 1471 1473 1474 1477 1479 1480 1483 1485 1487 1487 1488 1490 1492 1494 1496 1498 1500 1502 1503 1505 1507 1509 1510 1512 1513 1514 1515 1516 1517 1518 1518 1518 1519 1519 1519 1519
1461 1463 1465 1467 1469 1471 1473 1475 1477 1480 1482 1483 1483 1485 1487 1489 1491 1493 1495 1496 1498 1500 1501 1503 1505 1506 1508 1509 1510 1511 1512 1513 1513 1513 1514 1514 1514 1514
1455 1457 1459 1461 1463 1465 1467 1469 1472 1474 1476 1477 1478 1480 1481 1483 1486 1487 1489 1491 1492 1494 1496 1498 1500 1501 1502 1504 1505 1506 1506 1507 1508 1508 1509 1509 1509 1509
1449 1451 1453 1455 1457 1459 1461 1464 1466 1468 1470 1471 1472 1474 1476 1478 1480 1481 1483 1484 1486 1488 1490 1492 1493 1495 1497 1498 1499 1500 1501 1502 1503 1503 1504 1504 1504 1503
1443 1445 1447 1449 1451 1454 1456 1458 1460 1462 1464 1465 1467 1468 1470 1472 1475 1476 1477 1479 1480 1482 1484 1485 1487 1488 1490 1492 1493 1495 1496 1497 1497 1498 1498 1498 1498 1498
1437 1439 1441 1443 1445 1448 1450 1452 1454 1456 1459 1460 1461 1463 1465 1467 1469 1471 1472 1473 1474 1476 1478 1479 1481 1482 1484 1486 1487 1489 1490 1491 1491 1492 1492 1492 1492 1492
1431 1433 1435 1437 1439 1442 1444 1446 1448 1450 1452 1454 1456 1458 1461 1463 1464 1466 1467 1468 1469 1471 1472 1473 1474 1476 1478 1480 1481 1483 1484 1485 1485 1486 1486 1486 1486 1486
1425 1427 1429 1431 1433 1436 1438 1440 1442 1444 1446 1448 1450 1453 1455 1457 1459 1461 1462 1463 1463 1464 1466 1467 1468 1471 1472 1473 1475 1477 1478 1479 1480 1480 1480 1480 1480 1480
1419 1421 1423 1425 1428 1430 1432 1434 1435 1437 1440 1442 1444 1446 1448 1451 1453 1455 1456 1458 1458 1459 1460 1462 1463 1465 1466 1467 1469 1471 1472 1473 1473 1474 1474 1474 1474 1473
1413 1415 1416 1419 1422 1425 1426 1428 1430 1433 1434 1436 1438 1440 1442 1444 1446 1448 1450 1451 1452 1453 1455 1457 1458 1459 1461 1461 1463 1465 1466 1466 1467 1467 1468 1468 1467 1467
1408 1409 1411 1414 1416 1419 1421 1422 1425 1427 1429 1430 1432 1434 1435 1437 1439 1441 1443 1445 1446 1448 1450 1452 1452 1454 1455 1455 1456 1458 1459 1460 1460 1460 1461 1461 1462 1461
1404 1405 1407 1409 1411 1413 1415 1417 1419 1421 1422 1424 1425 1427 1430 1432 1433 1435 1437 1439 1440 1442 1444 1445 1446 1448 1449 1450 1451 1452 1452 1453 1454 1454 1455 1455 1455 1455
1401 1401 1403 1404 1406 1408 1409 1411 1413 1415 1416 1418 1420 1422 1424 1426 1428 1430 1431 1432 1434 1435 1437 1439 1441 1442 1443 1444 1445 1446 1447 1447 1448 1449 1449 1449 1449 1449
1398 1398 1399 1400 1401 1403 1404 1405 1407 1409 1411 1413 1415 1417 1418 1420 1422 1424 1425 1426 1428 1429 1431 1433 1435 1436 1437 1439 1439 1440 1441 1442 1442 1443 1443 1442 1442 1443
1396 1396 1396 1397 1399 1399 1400 1401 1402 1404 1405 1407 1409 1411 1413 1414 1416 1418 1420 1421 1422 1423 1425 1427 1429 1431 1432 1433 1435 1434 1435 1436 1436 1437 1437 1436 1435 1436
1393 1394 1395 1395 1396 1396 1397 1398 1398 1400 1401 1402 1404 1405 1407 1409 1411 1412 1414 1415 1416 1418 1420 1422 1423 1425 1425 1425 1427 1430 1430 1430 1431 1431 1431 1431 1430 1430
1392 1392 1393 1393 1394 1394 1394 1395 1395 1396 1397 1398 1399 1400 1402 1404 1405 1407 1408 1410 1411 1413 1415 1417 1418 1419 1420 1421 1422 1423 1425 1426 1426 1425 1426 1426 1426 1426
1391 1391 1392 1392 1392 1392 1392 1393 1393 1393 1394 1394 1395 1396 1398 1399 1400 1402 1403 1405 1407 1408 1410 1411 1413 1415 1417 1418 1418 1418 1419 1421 1421 1421 1421 1421 1420 1419
1391 1390 1391 1391 1391 1390 1390 1391 1391 1391 1391 1391 1392 1393 1394 1396 1396 1397 1399 1400 1402 1404 1405 1407 1409 1411 1412 1412 1412 1413 1414 1415 1416 1416 1417 1417 1415 1414
1390 1390 1389 1389 1389 1389 1389 1389 1388 1388 1389 1389 1389 1390 1391 1392 1393 1394 1395 1396 1398 1399 1401 1402 1404 1406 1407 1408 1408 1408 1409 1409 1410 1410 1411 1411 1412 1412